Location: Bednik
(45.3500°N, 16.3833°E)
Time: 07:19:11
(UTC+00:00)

Cosmos 2333 Rocket - Pass Details

Date: 08 August 2020
Orbit: 838 x 864 km, 70.8° (Epoch: 26 September)

Event Time Altitude Azimuth Distance (km) Brightness Sun altitude
Rises 22:32:57 0° 335° (NNW) 3,454 6.5 -28.5°
Reaches altitude 10° 22:35:27 10° 338° (NNW) 2,513 5.5 -28.6°
Maximum altitude 22:41:13 67° 61° (ENE) 936 2.4 -28.7°
Enters shadow 22:41:23 66° 72° (ENE) 938 2.3 -28.7°
